CW5439 Weather Reports


Display with metric or nautical units.
time (UTC)temp
F
wind
direction
speed
MPH
gust
MPH
rain 1hr
in
rain 24hr
in
rain mn
in
humidity
%
barometer
mb
20260505185206 44 82 6.0 12.0 0.00 0.00 0.00 70 1016.4
20260505184705 44 70 7.0 14.0 0.00 0.00 0.00 70 1016.4
20260505184205 44 105 8.0 14.0 0.00 0.00 0.00 71 1016.4
20260505183711 44 105 9.0 16.0 0.00 0.00 0.00 71 1016.4
20260505183205 44 78 8.0 16.0 0.00 0.00 0.00 70 1016.4
20260505182705 44 96 9.0 16.0 0.00 0.00 0.00 70 1016.4
20260505182205 44 101 8.0 15.0 0.00 0.00 0.00 69 1016.3
20260505181732 45 51 7.0 15.0 0.00 0.00 0.00 70 1016.4
20260505181229 45 55 7.0 15.0 0.00 0.00 0.00 71 1016.4
20260505180705 45 80 9.0 16.0 0.00 0.00 0.00 70 1016.4
20260505180205 45 113 10.0 16.0 0.00 0.00 0.00 70 1016.4
20260505175705 45 84 10.0 16.0 0.00 0.00 0.00 69 1016.4
20260505175205 45 51 10.0 15.0 0.00 0.00 0.00 70 1016.4
20260505174705 45 112 9.0 15.0 0.00 0.00 0.00 69 1016.3
20260505174205 45 74 8.0 15.0 0.00 0.00 0.00 69 1016.4
20260505173705 45 114 8.0 14.0 0.00 0.00 0.00 68 1016.4
20260505173205 45 96 9.0 13.0 0.00 0.00 0.00 68 1016.3
20260505172705 46 46 9.0 14.0 0.00 0.00 0.00 69 1016.3
20260505172206 46 75 8.0 16.0 0.00 0.00 0.00 69 1016.2
20260505171705 45 70 8.0 18.0 0.00 0.00 0.00 69 1016.3
20260505171205 45 73 10.0 18.0 0.00 0.00 0.00 69 1016.3
20260505170704 46 118 10.0 16.0 0.00 0.00 0.00 69 1016.3
20260505170205 46 94 10.0 16.0 0.00 0.00 0.00 69 1016.3
20260505165705 46 80 9.0 16.0 0.00 0.00 0.00 69 1016.3
20260505165205 46 95 8.0 14.0 0.00 0.00 0.00 69 1016.2
20260505164705 46 96 9.0 16.0 0.00 0.00 0.00 68 1016.2
20260505164205 46 86 9.0 17.0 0.00 0.00 0.00 69 1016.1
20260505163705 46 92 9.0 17.0 0.00 0.00 0.00 69 1016.1
20260505163205 46 107 9.0 17.0 0.00 0.00 0.00 70 1016.1
20260505162705 46 98 8.0 16.0 0.00 0.00 0.00 70 1016.1
20260505162206 46 93 9.0 15.0 0.00 0.00 0.00 71 1016.1
20260505161706 46 83 9.0 16.0 0.00 0.00 0.00 71 1016.1
20260505161205 46 86 9.0 17.0 0.00 0.00 0.00 72 1016.2
20260505160705 46 81 9.0 18.0 0.00 0.00 0.00 73 1016.2
20260505160205 45 81 9.0 18.0 0.00 0.00 0.00 73 1016.2
20260505153205 46 59 10.0 16.0 0.00 0.00 0.00 75 1016.1
20260505152206 46 103 9.0 16.0 0.00 0.00 0.00 74 1016.1
20260505151705 46 98 10.0 16.0 0.00 0.00 0.00 75 1016.1
20260505151205 46 87 10.0 16.0 0.00 0.00 0.00 74 1016.2
20260505150704 46 132 9.0 15.0 0.00 0.00 0.00 75 1016.2
20260505150206 46 74 8.0 15.0 0.00 0.00 0.00 75 1016.1
20260505140205 49 69 11.0 15.0 0.00 0.00 0.00 73 1015.7
20260505130205 49 75 8.0 16.0 0.00 0.00 0.00 73 1015.5
20260505124206 48 34 7.0 13.0 0.00 0.00 0.00 74 1015.4
20260505123205 47 41 8.0 13.0 0.00 0.00 0.00 75 1015.4
20260505122705 47 53 7.0 15.0 0.00 0.00 0.00 76 1015.5
20260505122206 47 355 8.0 18.0 0.00 0.00 0.00 76 1015.5
20260505121705 47 61 10.0 18.0 0.00 0.00 0.00 76 1015.5
20260505121205 47 55 9.0 16.0 0.00 0.00 0.00 76 1015.4
20260505120732 47 64 8.0 16.0 0.00 0.00 0.00 76 1015.4
20260505120205 47 57 8.0 14.0 0.00 0.00 0.00 76 1015.3
20260505115205 47 88 8.0 16.0 0.00 0.00 0.00 77 1015.3
20260505114705 47 74 8.0 16.0 0.00 0.00 0.00 77 1015.3
20260505114206 47 55 9.0 16.0 0.00 0.00 0.00 77 1015.3
20260505113205 47 103 9.0 19.0 0.00 0.00 0.00 76 1015.1
20260505112705 47 94 10.0 19.0 0.00 0.00 0.00 76 1015.1
20260505112206 47 57 9.0 15.0 0.00 0.00 0.00 75 1015.0
20260505111205 48 103 9.0 15.0 0.00 0.00 0.00 74 1014.9
20260505110705 49 55 9.0 15.0 0.00 0.00 0.00 74 1014.9
20260505110205 49 73 9.0 16.0 0.00 0.00 0.00 72 1014.9
20260505102206 53 51 4.0 12.0 0.00 0.00 0.00 58 1014.4
20260505100705 55 74 6.0 11.0 0.00 0.00 0.00 53 1014.4
20260505100205 53 82 5.0 10.0 0.00 0.00 0.00 62 1014.3
20260505095705 51 80 6.0 10.0 0.00 0.00 0.00 60 1014.4
20260505095211 51 38 6.0 11.0 0.00 0.00 0.00 63 1014.4
20260505094705 51 46 6.0 11.0 0.00 0.00 0.00 62 1014.4
20260505094205 51 46 5.0 12.0 0.00 0.00 0.00 61 1014.3
20260505093705 51 15 5.0 12.0 0.00 0.00 0.00 63 1014.4
20260505092704 52 355 6.0 11.0 0.00 0.00 0.00 63 1014.3
20260505092205 52 0 5.0 10.0 0.00 0.00 0.00 65 1014.2
20260505091704 51 335 5.0 15.0 0.00 0.00 0.00 63 1014.3
20260505091206 51 328 6.0 15.0 0.00 0.00 0.00 63 1014.3
20260505090705 51 11 7.0 15.0 0.00 0.00 0.00 67 1014.2
20260505085705 51 61 7.0 14.0 0.00 0.00 0.00 66 1014.2
20260505085205 51 10 7.0 13.0 0.00 0.00 0.00 67 1014.3
20260505084205 50 325 7.0 13.0 0.00 0.00 0.00 68 1014.2
20260505083705 50 344 7.0 11.0 0.00 0.00 0.00 68 1014.2
20260505083205 50 323 6.0 13.0 0.00 0.00 0.00 70 1014.1
20260505082206 50 335 8.0 14.0 0.00 0.00 0.00 70 1014.1
20260505081205 50 0 5.0 9.0 0.00 0.00 0.00 72 1014.0
20260505080705 50 309 5.0 14.0 0.00 0.00 0.00 73 1013.9
20260505080205 49 331 6.0 14.0 0.00 0.00 0.00 73 1013.8
20260505075705 49 5 7.0 14.0 0.00 0.00 0.00 73 1013.8
20260505075205 49 30 6.0 13.0 0.00 0.00 0.00 74 1013.8
20260505074705 49 340 6.0 13.0 0.00 0.00 0.00 76 1013.7
20260505074205 49 329 6.0 13.0 0.00 0.00 0.00 78 1013.6
20260505073705 49 346 7.0 13.0 0.00 0.00 0.00 78 1013.5
20260505073205 48 355 8.0 15.0 0.00 0.00 0.00 78 1013.4
20260505072706 48 340 8.0 15.0 0.00 0.00 0.00 78 1013.5
20260505072206 48 326 8.0 15.0 0.00 0.00 0.00 79 1013.4
20260505071706 48 344 9.0 15.0 0.00 0.00 0.00 80 1013.5
20260505071205 48 342 8.0 14.0 0.00 0.00 0.00 80 1013.6
20260505070705 47 275 8.0 16.0 0.00 0.00 0.00 81 1013.6
20260505070205 47 355 9.0 16.0 0.00 0.00 0.00 82 1013.6
20260505065705 47 348 8.0 16.0 0.00 0.00 0.00 83 1013.6
20260505065205 47 17 5.0 14.0 0.00 0.00 0.00 84 1013.6
20260505064704 47 321 6.0 14.0 0.00 0.00 0.00 85 1013.6
20260505064206 46 355 7.0 14.0 0.00 0.00 0.00 85 1013.5
20260505063704 46 342 8.0 14.0 0.00 0.00 0.00 86 1013.5
20260505063206 45 331 6.0 14.0 0.00 0.00 0.00 87 1013.4
20260505062705 45 331 5.0 10.0 0.00 0.00 0.00 88 1013.4
20260505062206 45 347 4.0 8.0 0.00 0.00 0.00 88 1013.5
20260505061704 45 63 2.0 6.0 0.00 0.00 0.00 89 1013.4
20260505061206 45 82 1.0 4.0 0.00 0.00 0.00 89 1013.4
20260505060705 44 199 2.0 4.0 0.00 0.00 0.00 89 1013.3
20260505060205 44 194 2.0 3.0 0.00 0.00 0.00 89 1013.2
20260505055705 44 210 1.0 3.0 0.00 0.00 0.00 90 1013.2
20260505055206 44 205 1.0 4.0 0.00 0.00 0.00 90 1013.1
20260505054705 44 238 2.0 4.0 0.00 0.00 0.00 90 1013.2
20260505054205 44 240 2.0 4.0 0.00 0.00 0.00 90 1013.0
20260505053205 44 262 2.0 4.0 0.00 0.00 0.00 91 1013.1
20260505052705 44 308 2.0 4.0 0.00 0.00 0.00 91 1013.1
20260505052205 44 323 1.0 5.0 0.00 0.00 0.00 91 1013.1
20260505051706 44 279 1.0 5.0 0.00 0.00 0.00 91 1013.1
20260505051206 44 286 2.0 6.0 0.00 0.00 0.00 91 1013.0
20260505050704 44 286 2.0 6.0 0.00 0.00 0.00 91 1013.0
20260505050205 43 282 3.0 7.0 0.00 0.00 0.00 91 1013.0
20260505041705 43 240 2.0 4.0 0.00 0.00 0.00 92 1012.9
20260505041205 43 253 2.0 4.0 0.00 0.00 0.00 92 1012.9
20260505040705 43 261 2.0 4.0 0.00 0.00 0.00 92 1012.9
20260505040206 43 245 2.0 6.0 0.00 0.00 0.00 92 1012.9
20260505035705 43 248 2.0 6.0 0.00 0.00 0.00 92 1012.9
20260505034705 43 266 2.0 6.0 0.00 0.00 0.00 92 1012.9
20260505033705 42 233 3.0 6.0 0.00 0.00 0.00 92 1012.8
20260505033205 42 235 2.0 5.0 0.00 0.00 0.00 92 1012.8
20260505032705 42 244 2.0 4.0 0.00 0.00 0.00 92 1012.8
20260505032205 42 229 2.0 4.0 0.00 0.00 0.00 92 1012.8
20260505031705 42 232 2.0 4.0 0.00 0.00 0.00 92 1012.8
20260505031205 42 229 1.0 3.0 0.00 0.00 0.00 92 1012.9
20260505030705 42 227 1.0 3.0 0.00 0.00 0.00 92 1012.8
20260505030205 42 232 1.0 3.0 0.00 0.00 0.00 92 1012.8
20260505025705 42 248 2.0 3.0 0.00 0.00 0.00 92 1012.8
20260505025205 42 274 2.0 4.0 0.00 0.00 0.00 92 1012.9
20260505024705 42 248 2.0 4.0 0.00 0.00 0.00 92 1012.8
20260505023705 42 267 2.0 4.0 0.00 0.00 0.00 92 1012.9
20260505023205 42 242 3.0 4.0 0.00 0.00 0.00 92 1012.8
20260505022706 42 246 3.0 3.0 0.00 0.00 0.00 91 1012.8
20260505022208 41 241 2.0 3.0 0.00 0.00 0.00 91 1012.8
20260505021705 41 261 1.0 3.0 0.00 0.00 0.00 91 1012.8
20260505021205 41 245 1.0 3.0 0.00 0.00 0.00 91 1012.8
20260505020705 41 244 1.0 4.0 0.00 0.00 0.00 91 1012.9
20260505015206 41 259 2.0 7.0 0.00 0.00 0.00 91 1012.9
20260505014705 41 271 3.0 7.0 0.00 0.00 0.00 90 1012.9
20260505013705 42 250 3.0 6.0 0.00 0.01 0.00 90 1013.0
20260505013209 42 249 3.0 7.0 0.00 0.01 0.00 90 1012.9
20260505012705 42 259 3.0 7.0 0.00 0.01 0.00 90 1012.9
20260505012205 42 250 4.0 7.0 0.00 0.01 0.00 90 1013.0
20260505011704 42 248 4.0 7.0 0.00 0.01 0.00 90 1012.9
20260505011208 42 0 3.0 7.0 0.00 0.01 0.00 90 1012.9
20260505010205 42 245 3.0 7.0 0.00 0.01 0.00 90 1012.9
20260505005705 42 234 3.0 7.0 0.00 0.01 0.00 89 1012.9
20260505005205 42 215 3.0 7.0 0.00 0.01 0.00 89 1012.9
20260505004705 42 0 3.0 9.0 0.00 0.01 0.00 89 1012.9
20260505004206 42 232 4.0 9.0 0.00 0.01 0.00 89 1012.8
20260505003707 42 243 5.0 9.0 0.00 0.01 0.00 89 1012.8
20260505003205 42 225 4.0 8.0 0.00 0.01 0.00 89 1012.9
20260505002705 42 250 3.0 7.0 0.00 0.01 0.00 89 1012.9
20260505002206 42 250 4.0 7.0 0.00 0.01 0.00 89 1012.9
20260505001705 42 229 3.0 6.0 0.00 0.01 0.00 89 1012.9
20260505001206 42 232 2.0 6.0 0.00 0.01 0.00 89 1013.0
20260505000708 43 246 3.0 7.0 0.00 0.01 0.00 89 1013.0
20260504235206 43 213 3.0 8.0 0.00 0.01 0.00 88 1013.0
20260504234705 43 240 3.0 8.0 0.00 0.01 0.00 88 1013.0
20260504234205 43 232 3.0 8.0 0.00 0.02 0.00 88 1013.1
20260504233706 43 226 3.0 8.0 0.00 0.02 0.00 88 1013.0
20260504233206 43 252 3.0 8.0 0.00 0.02 0.00 88 1013.1
20260504232705 43 263 3.0 8.0 0.00 0.02 0.00 88 1013.2
20260504232205 44 270 4.0 8.0 0.00 0.02 0.00 87 1013.1
20260504231705 44 255 4.0 8.0 0.00 0.02 0.00 87 1013.1
20260504231205 44 255 4.0 8.0 0.00 0.02 0.00 87 1013.1
20260504230705 44 224 4.0 9.0 0.00 0.02 0.00 87 1013.1
20260504225705 44 223 5.0 11.0 0.00 0.02 0.02 87 1013.1
20260504225205 44 217 5.0 11.0 0.00 0.02 0.02 87 1013.1
20260504224706 44 183 5.0 11.0 0.00 0.02 0.02 87 1013.1
20260504223705 44 242 4.0 12.0 0.00 0.02 0.02 86 1013.2
20260504223205 44 227 4.0 12.0 0.00 0.02 0.02 86 1013.2
20260504222706 44 217 5.0 12.0 0.00 0.02 0.02 86 1013.1
20260504222209 44 228 4.0 7.0 0.00 0.02 0.02 86 1013.2
20260504221729 45 253 3.0 7.0 0.00 0.02 0.02 85 1013.2
20260504221205 45 234 2.0 5.0 0.00 0.02 0.02 85 1013.2
20260504220705 45 253 2.0 5.0 0.00 0.02 0.02 85 1013.2
20260504220206 45 232 2.0 7.0 0.00 0.02 0.02 85 1013.2
20260504215205 45 245 3.0 7.0 0.00 0.02 0.02 85 1013.2
20260504214705 45 247 3.0 7.0 0.00 0.02 0.02 84 1013.2
20260504214205 46 217 3.0 7.0 0.00 0.02 0.02 84 1013.3
20260504213705 46 223 3.0 5.0 0.00 0.02 0.02 84 1013.3
20260504213205 46 220 3.0 5.0 0.00 0.02 0.02 84 1013.3
20260504212705 46 240 3.0 8.0 0.00 0.02 0.02 83 1013.3
20260504211705 46 262 3.0 8.0 0.00 0.02 0.02 83 1013.3
20260504211221 46 264 3.0 11.0 0.00 0.02 0.02 83 1013.2
20260504210705 47 239 4.0 11.0 0.00 0.02 0.02 83 1013.2
20260504210208 47 244 4.0 11.0 0.00 0.02 0.02 83 1013.2
20260504205705 47 238 4.0 7.0 0.00 0.02 0.02 83 1013.2
20260504205205 47 237 4.0 7.0 0.00 0.02 0.02 82 1013.3
20260504204711 47 258 4.0 9.0 0.00 0.02 0.02 82 1013.4
20260504204206 47 223 4.0 9.0 0.00 0.02 0.02 82 1013.4
20260504203205 48 245 3.0 8.0 0.00 0.02 0.02 81 1013.4
20260504202205 48 248 4.0 9.0 0.00 0.02 0.02 81 1013.3
20260504201706 48 244 4.0 10.0 0.00 0.02 0.02 80 1013.3
20260504201205 48 216 4.0 10.0 0.00 0.02 0.02 80 1013.2
20260504200705 49 246 4.0 10.0 0.00 0.02 0.02 79 1013.2
20260504200226 49 238 4.0 10.0 0.00 0.02 0.02 79 1013.1
20260504195705 49 254 4.0 9.0 0.00 0.02 0.02 78 1013.1
20260504195208 49 240 4.0 9.0 0.00 0.02 0.02 78 1013.1
20260504194705 50 249 5.0 10.0 0.00 0.02 0.02 77 1013.1
20260504194205 50 225 4.0 11.0 0.00 0.02 0.02 77 1013.1
20260504193205 51 242 4.0 11.0 0.00 0.02 0.02 76 1012.9
20260504192206 51 248 5.0 11.0 0.00 0.02 0.02 75 1012.9
20260504191705 51 250 6.0 13.0 0.00 0.02 0.02 75 1012.9
20260504191205 52 259 6.0 14.0 0.00 0.02 0.02 74 1012.8
20260504190705 52 250 7.0 14.0 0.00 0.02 0.02 73 1012.8
20260504190205 53 0 8.0 14.0 0.00 0.02 0.02 72 1012.8